Back to catalog

STARLINK-31383

AliveCommunicationsVLEO
NORAD 58936·PAYLOAD·🇺🇸 United States

Launched Feb 10, 2024 from Vandenberg Space Force Base

Loading…

Next Passes (next 24 hours)

TLE

FreshSource: CelesTrak SupGP

Epoch: Sep 14, 2026, 21:25 UTC

1 58936C 24027F   26257.89284722 -.00064750  00000+0 -19125-2 0  2570
2 58936  53.1582 149.6356 0001242  91.5618 228.5993 15.34431717    15

Track STARLINK-31383 in real time with AllMySat

Download on the App Store